Location: Glums�
(55.3568°N, 11.6856°E)
Time: 19:12:19
(UTC+00:00)

DELTA 2 DEB (DPAF) - Pass Details

Date: 07 June 2020
Orbit: 641 x 646 km, 98.3° (Epoch: 02 July)

Event Time Altitude Azimuth Distance (km) Brightness Sun altitude
Exits shadow 00:02:35 - 154° (SSE) 2,122 6.3 -11.1°
Reaches altitude 10° 00:02:46 10° 154° (SSE) 2,046 6.3 -11.1°
Maximum altitude 00:07:12 72° 71° (ENE) 687 4.4 -11.0°
Drops below altitude 10° 00:11:41 10° 347° (NNW) 2,062 7.8 -10.8°
Sets 00:13:55 0° 346° (NNW) 2,977 8.7 -10.8°
